NKS567 KSAN-KLAX

Flight info

Callsign NKS567
Flight time 0h 37m
Altitude 10000
Route CWARD2 SLI
Aircraft A319/M-SDE3FGHIRWY/LB1

Departure

Time 2026-04-26 05:30
Airport San Diego International Airport (KSAN)

Arrival

Time 2026-04-26 06:08
Airport Los Angeles International Airport (KLAX)
Time Latitude Longitude Altitude Speed Heading
2026-04-26 05:11 32.73395 -117.20053 21 ft 0 kts 256°
2026-04-26 05:15 32.73398 -117.20037 22 ft 4 kts 256°
2026-04-26 05:15 32.73404 -117.20006 22 ft 4 kts 263°
2026-04-26 05:15 32.73404 -117.19976 26 ft 4 kts 304°
2026-04-26 05:16 32.73397 -117.19968 24 ft 0 kts
2026-04-26 05:19 32.73406 -117.19966 24 ft 3 kts
2026-04-26 05:19 32.73435 -117.19955 22 ft 5 kts 20°
2026-04-26 05:19 32.73467 -117.19929 24 ft 6 kts 53°
2026-04-26 05:20 32.73468 -117.19856 24 ft 11 kts 102°
2026-04-26 05:20 32.73447 -117.19759 26 ft 13 kts 106°
2026-04-26 05:20 32.73418 -117.19640 26 ft 16 kts 106°
2026-04-26 05:20 32.73384 -117.19504 25 ft 17 kts 105°
2026-04-26 05:21 32.73349 -117.19355 21 ft 21 kts 106°
2026-04-26 05:21 32.73308 -117.19190 21 ft 22 kts 106°
2026-04-26 05:21 32.73265 -117.19013 23 ft 23 kts 106°
2026-04-26 05:21 32.73219 -117.18822 24 ft 25 kts 106°
2026-04-26 05:22 32.73170 -117.18617 27 ft 27 kts 106°
2026-04-26 05:22 32.73115 -117.18392 25 ft 30 kts 105°
2026-04-26 05:22 32.73066 -117.18189 23 ft 24 kts 106°
2026-04-26 05:22 32.73014 -117.17989 21 ft 27 kts 106°
2026-04-26 05:23 32.72979 -117.17830 19 ft 18 kts 106°
2026-04-26 05:23 32.72958 -117.17747 19 ft 2 kts 106°
2026-04-26 05:23 32.72958 -117.17746 19 ft 0 kts 106°
2026-04-26 05:24 32.72957 -117.17741 19 ft 2 kts 106°
2026-04-26 05:24 32.72955 -117.17734 19 ft 0 kts 105°
2026-04-26 05:27 32.72955 -117.17733 21 ft 1 kts 105°
2026-04-26 05:27 32.72951 -117.17704 20 ft 6 kts 95°
2026-04-26 05:27 32.72958 -117.17653 22 ft 0 kts 72°
2026-04-26 05:27 32.72958 -117.17654 22 ft 0 kts 72°
2026-04-26 05:28 32.72959 -117.17650 23 ft 2 kts 72°
2026-04-26 05:28 32.72968 -117.17619 22 ft 5 kts 71°
2026-04-26 05:29 32.73002 -117.17578 23 ft 8 kts
2026-04-26 05:29 32.73036 -117.17643 22 ft 9 kts 287°
2026-04-26 05:29 32.73049 -117.17692 21 ft 17 kts 287°
2026-04-26 05:29 32.73139 -117.18069 20 ft 78 kts 286°
2026-04-26 05:30 32.73340 -117.18895 21 ft 129 kts 286°
2026-04-26 05:30 32.73622 -117.20048 308 ft 152 kts 288°
2026-04-26 05:30 32.74044 -117.21252 807 ft 167 kts 303°
2026-04-26 05:30 32.74718 -117.22417 1418 ft 179 kts 301°
2026-04-26 05:31 32.75478 -117.23705 1898 ft 202 kts 303°
2026-04-26 05:31 32.76310 -117.25176 2432 ft 227 kts 300°
2026-04-26 05:31 32.77202 -117.26826 3097 ft 245 kts 300°
2026-04-26 05:31 32.78140 -117.28554 4083 ft 251 kts 301°
2026-04-26 05:32 32.79101 -117.30306 5113 ft 256 kts 301°
2026-04-26 05:32 32.80096 -117.32082 6123 ft 260 kts 302°
2026-04-26 05:32 32.81157 -117.33806 7088 ft 264 kts 304°
2026-04-26 05:32 32.82280 -117.35543 8076 ft 266 kts 304°
2026-04-26 05:33 32.83426 -117.37291 9044 ft 269 kts 304°
2026-04-26 05:33 32.84589 -117.39065 9727 ft 274 kts 304°
2026-04-26 05:33 32.85755 -117.40852 9922 ft 273 kts 304°
2026-04-26 05:33 32.86917 -117.42639 9968 ft 273 kts 304°
2026-04-26 05:34 32.88072 -117.44423 9964 ft 272 kts 304°
2026-04-26 05:34 32.89225 -117.46209 9963 ft 272 kts 304°
2026-04-26 05:34 32.90377 -117.47996 9960 ft 272 kts 304°
2026-04-26 05:34 32.91525 -117.49786 9959 ft 272 kts 304°
2026-04-26 05:35 32.92673 -117.51578 9955 ft 272 kts 303°
2026-04-26 05:35 32.93807 -117.53350 9954 ft 273 kts 303°
2026-04-26 05:35 32.94958 -117.55143 9952 ft 273 kts 304°
2026-04-26 05:35 32.96110 -117.56936 9951 ft 272 kts 303°
2026-04-26 05:36 32.97259 -117.58728 9957 ft 272 kts 304°
2026-04-26 05:36 32.98412 -117.60522 9958 ft 272 kts 304°
2026-04-26 05:36 32.99563 -117.62315 9967 ft 273 kts 304°
2026-04-26 05:36 33.00713 -117.64108 9971 ft 273 kts 304°
2026-04-26 05:37 33.01862 -117.65901 9961 ft 273 kts 303°
2026-04-26 05:37 33.03011 -117.67701 9957 ft 272 kts 303°
2026-04-26 05:37 33.04158 -117.69499 9956 ft 273 kts 303°
2026-04-26 05:37 33.05305 -117.71297 9954 ft 273 kts 303°
2026-04-26 05:38 33.06506 -117.73052 9952 ft 275 kts 311°
2026-04-26 05:38 33.07934 -117.74537 9950 ft 277 kts 316°
2026-04-26 05:38 33.09401 -117.76016 9957 ft 277 kts 315°
2026-04-26 05:38 33.10890 -117.77523 9965 ft 277 kts 315°
2026-04-26 05:39 33.12338 -117.78994 9947 ft 277 kts 315°
2026-04-26 05:39 33.13799 -117.80485 9950 ft 277 kts 315°
2026-04-26 05:39 33.15261 -117.81975 9947 ft 277 kts 315°
2026-04-26 05:39 33.16725 -117.83468 9948 ft 277 kts 315°
2026-04-26 05:40 33.18194 -117.84954 9946 ft 278 kts 317°
2026-04-26 05:40 33.19868 -117.86138 9951 ft 283 kts 333°
2026-04-26 05:40 33.21768 -117.86795 9949 ft 288 kts 344°
2026-04-26 05:40 33.23743 -117.87273 9945 ft 289 kts 344°
2026-04-26 05:41 33.25710 -117.87756 9938 ft 289 kts 343°
2026-04-26 05:41 33.27653 -117.88238 9937 ft 289 kts 343°
2026-04-26 05:41 33.29620 -117.88728 9937 ft 289 kts 343°
2026-04-26 05:41 33.31588 -117.89218 9937 ft 289 kts 343°
2026-04-26 05:42 33.33554 -117.89709 9937 ft 289 kts 343°
2026-04-26 05:42 33.35520 -117.90202 9936 ft 289 kts 343°
2026-04-26 05:42 33.37490 -117.90696 9936 ft 289 kts 343°
2026-04-26 05:42 33.39431 -117.91295 9938 ft 287 kts 338°
2026-04-26 05:43 33.41341 -117.91996 9939 ft 288 kts 338°
2026-04-26 05:43 33.43260 -117.92691 9949 ft 289 kts 339°
2026-04-26 05:43 33.45185 -117.93389 9945 ft 289 kts 339°
2026-04-26 05:43 33.47110 -117.94091 9943 ft 290 kts 339°
2026-04-26 05:44 33.49039 -117.94791 9944 ft 290 kts 339°
2026-04-26 05:44 33.50948 -117.95483 9945 ft 290 kts 339°
2026-04-26 05:44 33.52880 -117.96185 9944 ft 290 kts 339°
2026-04-26 05:44 33.54814 -117.96890 9945 ft 290 kts 339°
2026-04-26 05:45 33.56744 -117.97596 9947 ft 290 kts 339°
2026-04-26 05:45 33.58679 -117.98303 9946 ft 291 kts 339°
2026-04-26 05:45 33.60614 -117.99008 9948 ft 291 kts 339°
2026-04-26 05:45 33.62547 -117.99708 9951 ft 291 kts 339°
2026-04-26 05:46 33.64491 -118.00413 9728 ft 293 kts 339°
2026-04-26 05:46 33.66433 -118.01119 9323 ft 289 kts 339°
2026-04-26 05:46 33.68321 -118.01802 8928 ft 279 kts 338°
2026-04-26 05:46 33.70155 -118.02468 8534 ft 271 kts 339°
2026-04-26 05:47 33.71934 -118.03116 8148 ft 264 kts 338°
2026-04-26 05:47 33.73677 -118.03756 7768 ft 259 kts 338°
2026-04-26 05:47 33.75361 -118.04377 7351 ft 254 kts 338°
2026-04-26 05:47 33.77041 -118.04993 6991 ft 250 kts 339°
2026-04-26 05:48 33.78640 -118.05616 6900 ft 234 kts 334°
2026-04-26 05:48 33.80155 -118.06374 6671 ft 231 kts 332°
2026-04-26 05:48 33.81615 -118.07150 6371 ft 229 kts 331°
2026-04-26 05:48 33.83062 -118.07928 6058 ft 226 kts 331°
2026-04-26 05:49 33.84491 -118.08697 5751 ft 224 kts 331°
2026-04-26 05:49 33.87281 -118.10215 5137 ft 220 kts 331°
2026-04-26 05:49 33.88662 -118.10977 4936 ft 217 kts 331°
2026-04-26 05:50 33.90035 -118.11741 4819 ft 219 kts 331°
2026-04-26 05:50 33.91418 -118.12515 4420 ft 219 kts 331°
2026-04-26 05:50 33.92794 -118.13307 4036 ft 219 kts 329°
2026-04-26 05:50 33.93952 -118.14441 3644 ft 214 kts 302°
2026-04-26 05:51 33.94627 -118.16030 3272 ft 213 kts 292°
2026-04-26 05:51 33.95202 -118.17672 2963 ft 211 kts 291°
2026-04-26 05:51 33.95754 -118.19300 2950 ft 210 kts 290°
2026-04-26 05:51 33.96289 -118.20940 2953 ft 210 kts 290°
2026-04-26 05:52 33.96794 -118.22590 2949 ft 210 kts 284°
2026-04-26 05:52 33.96828 -118.24329 2958 ft 209 kts 263°
2026-04-26 05:52 33.96552 -118.26044 2947 ft 210 kts 246°
2026-04-26 05:52 33.95539 -118.27334 3390 ft 220 kts 209°
2026-04-26 05:53 33.94058 -118.27679 4259 ft 226 kts 179°
2026-04-26 05:53 33.92483 -118.27388 4798 ft 230 kts 172°
2026-04-26 05:53 33.90920 -118.26986 4927 ft 229 kts 171°
2026-04-26 05:53 33.89366 -118.26570 4954 ft 229 kts 171°
2026-04-26 05:54 33.87814 -118.26152 4951 ft 228 kts 171°
2026-04-26 05:54 33.86263 -118.25733 4951 ft 228 kts 171°
2026-04-26 05:54 33.84713 -118.25313 4941 ft 228 kts 171°
2026-04-26 05:54 33.83164 -118.24894 4942 ft 228 kts 171°
2026-04-26 05:55 33.81612 -118.24469 4943 ft 229 kts 169°
2026-04-26 05:55 33.80203 -118.23567 4944 ft 236 kts 138°
2026-04-26 05:55 33.79390 -118.21869 4946 ft 238 kts 104°
2026-04-26 05:55 33.79357 -118.19893 4950 ft 238 kts 84°
2026-04-26 05:56 33.79575 -118.17934 4946 ft 240 kts 81°
2026-04-26 05:56 33.79820 -118.15939 4943 ft 242 kts 81°
2026-04-26 05:56 33.80066 -118.13941 4944 ft 242 kts 81°
2026-04-26 05:56 33.80315 -118.11940 4907 ft 242 kts 81°
2026-04-26 05:57 33.80564 -118.09938 4910 ft 242 kts 81°
2026-04-26 05:57 33.80813 -118.07938 4908 ft 242 kts 81°
2026-04-26 05:57 33.81063 -118.05941 4907 ft 241 kts 81°
2026-04-26 05:57 33.81374 -118.03968 4904 ft 241 kts 70°
2026-04-26 05:58 33.82310 -118.02347 4904 ft 237 kts 36°
2026-04-26 05:58 33.83784 -118.01573 4947 ft 231 kts
2026-04-26 05:58 33.85373 -118.01325 4945 ft 229 kts
2026-04-26 05:58 33.86957 -118.01143 4957 ft 228 kts
2026-04-26 05:59 33.88537 -118.00973 4952 ft 228 kts
2026-04-26 05:59 33.90115 -118.00805 4952 ft 228 kts
2026-04-26 05:59 33.91695 -118.00636 4941 ft 228 kts
2026-04-26 05:59 33.93254 -118.00470 4944 ft 228 kts
2026-04-26 06:00 33.94826 -118.00443 4934 ft 223 kts 343°
2026-04-26 06:00 33.96166 -118.01278 4942 ft 216 kts 314°
2026-04-26 06:00 33.96981 -118.02751 4947 ft 212 kts 287°
2026-04-26 06:00 33.97135 -118.04490 4948 ft 210 kts 263°
2026-04-26 06:01 33.96959 -118.06242 4946 ft 211 kts 263°
2026-04-26 06:01 33.96784 -118.07960 4928 ft 199 kts 263°
2026-04-26 06:01 33.96623 -118.09572 4802 ft 190 kts 263°
2026-04-26 06:01 33.96469 -118.11128 4575 ft 185 kts 264°
2026-04-26 06:02 33.96317 -118.12646 4347 ft 180 kts 264°
2026-04-26 06:02 33.96171 -118.14112 4102 ft 174 kts 263°
2026-04-26 06:02 33.96029 -118.15532 3868 ft 169 kts 263°
2026-04-26 06:02 33.95893 -118.16896 3645 ft 164 kts 264°
2026-04-26 06:03 33.95759 -118.18239 3437 ft 158 kts 263°
2026-04-26 06:03 33.95630 -118.19523 3233 ft 151 kts 264°
2026-04-26 06:03 33.95507 -118.20752 3033 ft 145 kts 263°
2026-04-26 06:03 33.95392 -118.21898 2845 ft 132 kts 263°
2026-04-26 06:04 33.95284 -118.22969 2672 ft 127 kts 263°
2026-04-26 06:04 33.95179 -118.24020 2501 ft 125 kts 263°
2026-04-26 06:04 33.95075 -118.25052 2336 ft 123 kts 263°
2026-04-26 06:04 33.94971 -118.26084 2167 ft 124 kts 263°
2026-04-26 06:05 33.94867 -118.27112 1996 ft 124 kts 262°
2026-04-26 06:05 33.94763 -118.28139 1835 ft 123 kts 262°
2026-04-26 06:05 33.94662 -118.29144 1667 ft 122 kts 262°
2026-04-26 06:05 33.94592 -118.29835 1550 ft 123 kts 262°
2026-04-26 06:06 33.94455 -118.31186 1329 ft 122 kts 263°
2026-04-26 06:06 33.94352 -118.32200 1149 ft 122 kts 262°
2026-04-26 06:06 33.94255 -118.33213 1013 ft 122 kts 265°
2026-04-26 06:06 33.94150 -118.34225 813 ft 121 kts 261°
2026-04-26 06:07 33.94053 -118.35244 676 ft 124 kts 263°
2026-04-26 06:07 33.93944 -118.36264 507 ft 123 kts 264°
2026-04-26 06:07 33.93849 -118.37289 331 ft 124 kts 261°
2026-04-26 06:07 33.93740 -118.38309 171 ft 123 kts 259°
2026-04-26 06:08 33.93669 -118.38950 126 ft 107 kts 263°
2026-04-26 06:08 33.93612 -118.39494 126 ft 39 kts 263°
2026-04-26 06:08 33.93617 -118.39820 126 ft 39 kts 285°
2026-04-26 06:08 33.93665 -118.40096 124 ft 17 kts 269°
2026-04-26 06:09 33.93648 -118.40218 123 ft 14 kts 257°
2026-04-26 06:09 33.93643 -118.40290 126 ft 12 kts 270°
2026-04-26 06:09 33.93670 -118.40368 125 ft 9 kts 298°
2026-04-26 06:09 33.93707 -118.40412 124 ft 7 kts 339°
2026-04-26 06:10 33.93743 -118.40419 123 ft 4 kts 351°
2026-04-26 06:10 33.93772 -118.40425 126 ft 7 kts 351°
2026-04-26 06:10 33.93821 -118.40442 123 ft 7 kts 327°
2026-04-26 06:10 33.93845 -118.40515 123 ft 9 kts 323°
2026-04-26 06:11 33.93909 -118.40523 125 ft 8 kts
2026-04-26 06:11 33.93939 -118.40504 124 ft 6 kts 33°
2026-04-26 06:11 33.93969 -118.40482 123 ft 3 kts 31°
2026-04-26 06:11 33.93975 -118.40478 124 ft 0 kts 31°
2026-04-26 06:12 33.93976 -118.40478 124 ft 0 kts 31°